RH
76 78 80 84 86 86 84 82 80 79 77 74 72 71 69 67 67 68 66 65 64 62 60 56 51 50 49 51 53 54 54 50 46 46 49 51 50 55 71 88 100 104 104 104 102 100 98 97 97 100 102 101 102 102 101 100 100 101 100 102 103 100 102 103 101 105 104 102 103 102 103 103 101 101 102 103 103 102 100 99 100 100 100 100 100
83 81 80 81 83 86 86 83 80 76 76 76 74 72 71 70 69 69 70 70 68 67 65 61 56 55 54 51 50 53 55 55 52 49 46 48 50 52 56 65 78 95 106 106 103 102 103 103 100 100 102 102 101 101 102 101 100 102 102 102 104 100 101 101 99 102 102 101 102 101 104 105 102 102 103 101 101 104 101 99 99 98 99 100 99
94 89 85 83 81 81 82 81 78 73 71 70 72 72 71 70 70 70 71 72 71 70 70 68 61 56 57 56 52 51 53 55 56 55 51 47 46 48 53 56 59 70 87 101 107 105 103 104 102 101 102 102 101 99 101 102 100 102 103 100 102 101 99 100 99 100 100 101 101 100 102 105 105 103 104 104 104 104 103 102 101 98 99 97 97
101 98 95 92 87 82 78 76 74 71 69 66 66 67 69 69 68 69 70 71 71 70 70 73 71 63 57 57 57 54 53 54 56 57 57 55 49 45 47 52 54 56 62 75 89 98 102 103 103 105 105 102 101 98 97 99 99 103 104 99 100 101 100 101 100 100 101 100 100 100 100 102 103 101 102 106 104 102 103 104 103 103 102 98 96
103 100 98 96 93 88 82 78 74 72 70 68 65 63 63 65 65 67 68 68 69 70 69 70 74 72 64 58 58 57 55 55 55 57 58 60 58 52 46 44 47 51 53 56 63 75 88 99 105 107 106 101 100 101 99 98 99 102 102 100 101 102 101 101 100 101 101 100 100 101 100 100 100 100 100 101 101 101 102 102 102 103 104 104 104
98 96 94 93 91 89 87 84 81 78 74 70 68 64 61 60 60 62 63 65 66 66 67 67 70 73 71 66 61 59 58 57 55 56 57 58 60 60 56 50 45 44 47 51 54 58 66 79 94 104 109 106 102 103 104 100 100 101 102 102 102 102 101 100 100 101 101 101 101 101 101 100 100 101 99 99 101 101 100 101 102 103 103 103 105
95 94 93 92 92 91 90 88 86 83 77 71 68 65 63 61 59 58 58 59 61 63 63 64 65 67 70 69 66 63 61 60 57 56 56 57 59 61 62 61 57 48 45 46 48 52 55 59 72 86 101 108 106 105 106 103 101 101 102 103 102 102 102 101 101 102 101 100 101 101 101 101 100 101 100 99 99 99 100 102 102 104 104 101 101
94 94 94 94 94 93 92 89 86 82 78 73 69 66 65 64 62 60 58 56 55 56 56 57 58 59 62 64 65 65 65 64 63 61 60 59 58 59 60 63 66 61 53 47 44 45 48 51 56 65 77 89 97 102 106 106 104 103 103 101 101 103 102 101 102 102 102 101 101 100 101 101 100 101 103 101 100 100 100 100 100 101 102 100 100
94 94 92 91 89 88 86 84 82 80 78 75 72 69 67 66 65 63 60 58 53 49 47 48 48 48 50 52 55 59 62 65 67 68 67 65 62 59 58 59 64 66 63 58 53 47 43 42 46 53 60 67 76 84 93 100 102 105 109 105 101 103 102 100 101 101 102 102 101 100 100 100 99 100 101 100 100 102 102 101 100 101 101 100 100
87 86 83 80 77 75 75 75 75 76 76 75 74 72 71 69 68 66 63 60 56 50 45 42 40 39 39 39 41 44 49 55 62 67 70 71 68 64 61 59 58 62 64 65 64 59 53 46 41 41 48 55 62 67 73 81 87 95 104 105 103 106 103 100 101 102 103 103 100 100 101 101 101 101 101 101 101 101 102 101 100 100 102 101 100
69 71 70 69 67 65 65 66 68 70 71 73 73 73 73 72 70 69 66 63 59 54 49 43 39 35 32 31 31 32 35 40 47 56 64 70 71 68 66 64 61 60 60 62 64 65 63 60 53 45 40 43 50 57 62 66 70 75 83 90 96 102 103 102 103 103 104 104 101 99 100 101 101 101 102 103 102 102 103 101 99 100 102 101 100
58 60 62 63 62 60 59 60 61 63 65 67 69 70 71 71 71 69 67 65 63 58 53 48 42 36 31 27 26 26 27 29 33 39 48 57 67 70 69 68 68 66 64 62 61 62 63 64 64 60 52 45 42 45 51 55 60 63 67 71 76 83 89 94 99 102 103 104 103 101 101 102 101 100 102 102 102 103 104 102 101 101 102 102 100
53 54 55 57 59 59 59 59 59 60 61 62 64 66 68 69 69 67 65 63 63 61 57 52 46 39 33 28 25 25 25 26 27 29 33 40 50 61 68 71 71 70 70 69 66 62 60 60 62 64 65 61 53 48 45 44 48 53 58 61 63 67 71 74 80 87 92 95 99 102 102 102 101 100 101 101 101 103 103 102 104 104 105 106 104
50 50 51 53 56 59 59 59 59 59 59 59 61 63 64 65 66 65 64 61 60 59 57 55 50 43 36 30 27 26 26 26 27 27 28 30 34 41 53 64 71 71 71 72 72 69 64 59 57 58 62 65 66 63 59 52 45 43 46 51 55 59 61 63 66 69 73 77 83 88 91 94 96 98 100 100 99 102 103 101 101 102 105 107 103
41 43 45 46 47 50 51 52 52 53 54 55 56 57 58 58 59 59 60 59 58 57 55 53 51 48 42 35 29 26 26 27 28 28 28 28 28 30 35 44 57 67 71 72 72 73 73 68 62 57 56 58 62 65 69 67 61 52 46 44 46 51 53 55 58 61 63 65 68 71 74 77 80 83 87 90 92 96 98 98 98 98 100 102 99
25 28 30 32 32 34 37 40 40 40 42 44 45 46 48 49 49 50 51 51 52 53 53 52 50 49 47 43 37 29 26 27 28 30 30 29 29 29 29 31 38 49 61 70 72 72 75 76 73 67 61 56 55 58 62 67 68 65 60 54 50 50 50 49 51 53 55 57 60 62 64 65 66 68 70 72 75 79 81 83 86 87 89 91 92
16 17 18 19 20 22 24 27 30 29 29 31 33 34 35 36 38 40 41 41 43 44 47 49 49 49 48 47 44 38 32 29 28 29 30 31 32 31 31 31 31 34 41 53 65 72 76 79 80 78 73 67 60 56 56 59 62 63 63 62 61 59 58 54 51 51 51 50 51 53 55 58 59 60 61 62 63 65 66 67 69 70 72 74 75
15 16 16 16 16 16 16 17 20 22 22 23 25 26 26 27 28 29 30 32 34 35 38 41 45 48 49 49 48 44 40 35 31 30 30 31 32 33 33 33 33 33 33 36 45 57 68 77 83 85 84 80 75 68 62 59 59 60 58 57 59 62 65 64 61 58 56 54 51 48 48 50 52 53 54 55 56 57 57 58 59 59 60 61 62
12 14 15 16 17 17 16 16 16 18 19 19 19 20 21 22 22 23 24 24 26 28 30 34 38 42 47 50 52 51 48 43 37 34 33 32 32 32 33 34 35 35 34 34 35 39 47 59 73 85 90 90 87 82 75 69 66 64 62 57 53 54 58 62 66 66 65 64 63 59 52 48 49 50 49 48 49 49 50 51 52 53 53 54 55
9 10 11 12 14 15 16 15 14 15 17 18 18 18 18 18 19 20 20 21 22 23 24 27 30 35 39 44 49 54 55 53 47 41 37 35 35 34 33 33 34 35 35 35 34 34 36 40 50 64 78 89 94 93 87 81 77 73 72 68 60 54 51 53 58 62 64 66 69 73 72 66 59 55 54 52 50 49 48 48 48 48 48 49 51
7 7 8 9 9 10 11 11 11 11 12 15 17 17 18 19 19 19 19 20 20 20 20 21 23 27 31 34 38 45 52 56 55 51 45 40 38 38 37 35 34 34 35 34 34 33 33 34 36 42 52 67 82 93 95 92 88 84 82 81 76 67 59 54 55 57 58 59 61 68 77 82 79 71 66 64 63 61 58 56 55 52 51 51 52
4 5 5 6 7 7 7 8 9 8 9 11 13 14 16 18 19 19 19 20 20 20 19 19 19 20 23 27 30 33 39 47 54 56 53 49 44 42 41 40 38 36 35 35 35 34 33 32 33 34 37 44 56 71 84 91 92 91 91 91 91 85 76 69 65 64 62 59 57 58 64 75 83 83 78 73 73 75 74 73 71 68 65 63 61
3 3 4 4 5 5 5 6 6 7 7 7 9 10 11 12 14 15 16 16 18 19 19 19 19 19 19 21 24 26 29 34 41 49 54 54 51 48 45 43 43 41 39 37 35 35 35 34 33 33 34 36 39 46 58 69 78 84 89 94 97 97 92 85 80 76 73 68 62 58 58 64 72 79 81 79 77 77 79 81 82 81 80 80 79
3 3 3 3 3 4 4 4 4 5 5 5 6 7 7 8 9 10 11 11 11 13 15 17 18 18 19 19 20 22 24 26 30 37 45 50 52 51 49 47 46 45 43 40 38 36 36 36 36 36 35 35 36 38 42 48 56 64 72 79 87 93 95 93 89 86 83 80 73 65 62 63 66 70 75 79 81 80 78 78 81 83 85 86 87
3 3 3 3 3 4 4 4 4 4 4 5 5 5 5 6 6 7 8 8 8 8 9 11 13 15 16 18 19 20 22 23 25 28 33 39 45 48 49 47 47 48 47 44 41 38 37 37 38 38 37 36 35 36 39 41 45 49 53 58 64 72 79 85 89 90 89 86 81 76 72 70 69 68 69 73 78 83 84 83 82 82 84 85 86
3 3 3 4 4 4 4 4 4 4 4 4 4 5 5 5 5 5 5 6 7 7 7 8 9 10 12 13 16 18 20 21 23 25 27 30 35 40 45 46 45 46 48 48 46 43 39 38 38 39 40 39 37 36 36 38 40 43 46 48 51 54 58 64 72 79 84 86 84 82 81 79 76 72 70 72 75 81 88 91 92 91 89 87 86
4 4 4 4 4 4 5 5 4 4 4 4 4 4 4 5 5 5 5 5 4 5 6 6 7 8 9 10 12 13 15 17 19 21 23 25 28 31 37 41 43 43 45 47 49 48 45 41 39 38 39 40 40 40 38 38 38 39 41 43 46 48 50 51 54 58 64 69 72 74 77 80 79 75 72 75 78 81 86 91 96 99 99 95 90
4 4 4 4 4 4 4 5 4 4 4 4 4 4 4 4 4 4 4 5 4 4 5 5 5 6 7 9 10 11 12 13 15 16 19 21 22 24 29 34 38 40 42 44 47 48 49 47 44 42 40 40 41 41 41 40 39 38 39 40 41 43 45 47 48 50 51 53 54 56 60 65 69 69 68 70 75 80 85 89 94 99 102 103 101
4 4 4 4 4 4 4 4 4 4 4 4 4 4 4 4 4 4 4 4 5 5 5 5 5 5 6 6 8 10 10 11 11 13 15 18 19 19 21 26 31 35 36 38 42 45 48 49 48 47 45 44 44 44 43 42 40 39 39 39 40 41 42 43 45 46 47 47 47 47 49 51 54 56 57 59 62 67 71 77 84 91 98 102 106
4 4 4 4 4 4 4 4 4 4 4 4 4 3 3 4 4 4 4 5 5 5 5 5 5 5 5 5 5 7 8 9 10 10 12 15 17 18 17 19 23 28 31 33 34 37 42 46 47 47 46 46 46 47 47 46 45 43 41 39 38 38 39 40 42 44 45 45 45 45 45 46 47 46 46 47 50 53 56 59 65 73 80 85 91
3 3 3 3 3 3 4 4 4 4 4 3 4 3 3 4 4 4 4 4 5 5 5 5 6 5 5 5 5 5 6 7 8 9 9 11 14 16 17 17 18 21 25 28 29 30 33 37 42 44 45 45 45 45 45 46 46 46 45 43 42 40 39 37 37 39 42 43 45 45 44 44 45 44 43 43 44 46 47 49 53 57 61 65 70
3 3 3 2 3 2 3 3 3 3 3 3 3 3 3 3 4 4 4 4 4 5 5 5 5 5 5 5 5 5 5 6 6 7 8 9 11 12 15 17 18 18 20 23 26 28 28 29 32 37 40 42 43 43 43 43 43 43 43 44 44 45 44 42 39 38 37 38 40 42 42 43 44 44 45 44 44 43 42 42 44 47 50 51 53
4 4 3 3 3 3 2 3 3 2 3 3 3 3 3 4 4 4 4 4 4 4 5 5 5 4 5 5 5 5 5 6 6 6 7 7 9 10 12 13 15 16 18 21 24 26 27 27 27 30 33 37 39 40 41 41 41 41 40 40 40 42 43 44 45 44 42 39 37 37 38 39 40 42 44 44 44 44 43 42 42 42 43 43 43
4 4 4 4 4 4 3 3 3 3 3 3 3 3 3 3 3 4 4 4 4 4 4 4 4 4 4 5 5 5 5 5 5 5 6 6 7 8 9 11 12 13 15 18 21 24 27 28 28 28 29 32 35 36 37 38 40 40 40 39 38 39 40 41 43 45 46 45 42 39 38 37 38 38 40 41 43 44 45 45 44 44 42 41 40
4 4 4 4 4 4 4 3 3 3 3 3 3 3 3 3 3 3 4 4 4 4 4 3 3 4 4 4 5 5 4 5 4 4 5 6 6 6 7 8 8 10 11 13 16 19 23 26 28 29 30 31 32 33 33 34 36 37 38 38 38 39 40 40 41 42 43 45 45 44 42 41 40 38 37 38 40 41 43 45 45 46 45 44 43
4 4 3 4 3 3 4 3 3 3 3 3 3 3 3 3 3 3 3 4 4 4 4 3 3 3 3 3 4 5 4 4 4 4 5 5 5 6 6 6 6 7 8 10 12 14 16 19 22 25 28 30 32 32 32 33 34 34 35 35 37 40 42 42 43 42 42 42 43 44 45 45 45 44 42 41 39 38 39 41 43 44 45 46 46
3 3 3 3 3 3 3 3 3 3 3 3 3 3 3 3 3 3 3 3 4 4 3 3 3 3 3 3 4 4 5 5 5 5 5 5 5 5 5 5 6 6 7 7 9 10 12 13 15 17 20 23 25 27 28 31 33 33 33 34 36 38 41 43 44 45 44 43 43 42 42 43 46 48 49 49 47 43 39 38 39 41 43 45 46
4 4 4 3 3 3 3 3 3 3 3 3 3 3 3 3 3 3 3 3 3 3 3 3 3 3 3 3 4 4 4 5 5 5 5 5 5 5 5 5 5 6 6 7 7 8 9 11 12 13 15 16 17 19 20 22 26 28 29 31 33 35 37 40 43 45 47 47 46 44 41 39 40 43 47 50 51 49 46 43 41 41 41 43 45
4 4 4 4 4 4 4 4 3 3 3 3 3 3 3 3 3 3 3 3 3 3 3 3 3 3 3 3 3 4 4 4 5 5 6 6 6 6 6 5 5 6 6 6 7 7 8 9 10 11 13 14 15 16 16 16 18 20 22 24 27 29 31 33 36 39 42 45 47 46 43 40 37 37 40 43 46 48 49 49 48 46 44 44 45
4 4 4 4 4 4 4 4 4 4 3 3 3 3 3 3 3 3 3 3 3 3 3 3 3 3 4 4 4 4 4 4 4 5 5 6 6 7 6 6 6 6 6 7 7 7 7 8 9 10 11 12 13 15 15 15 16 16 17 18 20 22 24 27 29 30 32 34 37 39 40 40 39 38 37 37 38 40 43 47 49 49 49 49 49
4 4 4 4 4 4 4 4 4 4 4 3 3 3 3 3 3 3 3 3 3 3 4 4 4 4 4 4 4 4 4 4 4 5 5 5 6 6 7 7 7 7 7 7 7 7 7 7 8 8 9 10 11 11 12 13 13 14 14 15 15 17 19 21 24 25 26 28 29 30 31 32 34 35 37 36 35 34 35 39 43 46 49 52 52
4 4 4 4 4 4 4 4 4 4 4 4 4 3 3 3 3 3 3 3 4 4 4 4 4 4 4 4 4 4 5 5 5 5 5 5 5 6 6 7 8 8 8 8 8 8 8 8 8 8 8 8 9 9 9 9 10 10 11 11 12 13 15 17 18 20 23 25 26 26 26 26 27 29 32 34 35 34 33 34 36 38 41 45 48
5 4 4 4 4 4 4 4 4 4 4 4 4 4 4 3 3 3 3 4 4 4 4 4 4 4 4 4 4 4 4 5 5 5 5 5 5 5 6 6 7 7 8 9 9 9 9 9 9 9 9 9 8 8 8 8 8 8 9 9 9 10 12 13 14 15 17 20 22 23 24 24 24 25 27 30 31 32 33 34 34 32 32 34 38
5 5 5 5 4 4 4 4 4 4 4 4 4 4 4 4 4 3 3 4 4 4 4 4 4 4 4 4 4 5 5 5 5 5 5 6 6 6 6 6 6 6 7 8 9 9 10 10 10 10 10 9 9 9 9 9 9 8 8 8 9 9 10 11 11 12 13 15 16 18 20 21 22 23 24 26 27 28 30 33 33 31 29 30 31
6 6 5 5 5 5 5 4 4 5 5 4 4 4 4 4 4 4 4 4 4 4 4 4 4 4 4 4 4 4 5 5 5 5 6 6 6 6 7 6 7 7 7 7 7 8 10 10 11 11 11 10 10 10 10 10 10 10 9 9 9 9 9 10 10 11 11 12 13 14 16 17 18 20 21 22 24 25 26 29 31 30 30 31 31
5 6 6 6 6 5 5 5 5 5 5 5 4 4 4 4 4 4 4 4 4 4 4 4 4 4 4 4 4 4 5 5 5 5 6 6 6 7 7 7 7 7 7 7 7 8 8 9 10 11 11 11 11 11 11 11 10 10 10 10 10 10 10 10 11 11 11 12 12 12 13 14 15 16 17 19 20 21 22 25 28 29 31 33 33
6 6 6 6 6 6 6 6 5 5 5 5 5 5 4 4 4 4 4 4 4 4 4 4 5 4 4 4 4 4 5 5 5 5 5 6 6 6 7 7 7 8 8 8 8 7 8 8 9 10 11 11 12 12 11 11 11 11 11 11 11 11 11 12 12 12 11 12 12 12 13 13 14 14 15 16 17 18 19 22 25 27 30 31 31
6 6 6 6 6 6 6 6 6 6 6 5 5 5 5 5 4 4 4 4 4 5 5 5 5 5 5 5 5 5 5 5 5 5 5 5 5 6 6 7 7 8 8 8 8 8 8 8 8 8 9 9 10 10 11 11 12 12 12 12 12 12 12 13 13 12 12 12 12 13 13 14 14 14 15 15 16 17 17 18 21 23 25 27 27
6 6 6 6 6 6 6 6 6 6 6 6 6 5 5 5 5 4 4 4 4 5 4 5 5 5 5 5 5 5 5 5 5 5 5 5 5 5 6 6 7 7 8 8 8 8 8 9 8 8 8 8 8 8 9 9 10 11 11 12 12 12 13 14 14 14 13 13 13 14 14 14 14 14 14 15 16 16 16 17 18 20 22 23 23
6 6 5 6 6 6 6 6 6 6 6 6 6 5 5 5 5 5 5 5 4 5 5 5 5 5 5 5 5 5 6 5 5 6 5 5 6 5 6 6 6 6 7 7 7 8 8 9 9 9 9 9 9 9 9 9 9 9 9 10 10 10 11 12 13 13 13 13 14 14 14 15 15 15 15 16 16 16 16 16 17 19 21 22 21
6 6 6 6 5 5 5 5 5 5 5 5 5 5 5 5 5 5 5 5 5 5 5 5 5 5 5 5 5 6 6 6 6 6 6 6 6 6 6 6 6 6 6 6 6 7 7 7 8 8 8 9 9 9 9 9 9 10 9 9 9 9 10 10 11 11 11 11 11 12 12 12 13 13 14 15 15 15 15 15 16 17 19 21 21
Wind_Speed
73 73 73 73 74 75 75 74 74 73 73 73 72 71 71 70 69 69 70 71 72 72 74 75 74 74 76 79 81 83 86 89 93 97 100 101 102 104 108 111 112 111 111 111 110 110 109 109 109 110 112 112 112 112 112 111 111 111 112 112 111 111 111 110 109 109 109 108 108 107 107 107 107 106 105 105 104 103 102 101 100 100 100 100 99
78 78 77 77 77 77 78 77 77 75 75 75 74 74 73 73 72 71 71 72 73 74 75 77 76 75 76 78 80 82 85 87 90 93 97 101 103 104 107 111 113 113 114 114 114 113 113 112 111 112 114 114 114 114 114 115 115 116 116 116 115 114 114 112 111 111 111 110 110 110 109 109 109 109 108 108 108 108 108 107 105 104 103 103 103
83 83 83 82 81 80 80 79 79 78 77 77 76 76 76 75 75 74 74 74 75 75 76 78 78 77 77 78 79 81 83 86 88 91 94 97 101 104 106 110 112 114 115 117 118 117 116 115 114 114 116 116 116 117 117 117 118 118 119 119 119 118 116 115 114 114 114 113 112 111 111 111 111 110 110 110 111 111 111 111 110 110 109 107 107
87 88 88 88 87 85 84 82 81 81 80 79 78 78 78 78 77 77 76 76 76 77 77 77 80 81 80 80 80 81 82 84 87 89 92 94 97 101 105 109 112 114 116 118 120 120 119 118 117 117 118 118 118 118 118 119 119 120 121 121 121 121 120 119 118 118 117 116 114 113 114 113 112 112 112 113 113 112 113 113 113 114 114 113 113
91 91 91 91 91 90 88 86 85 83 83 83 82 81 81 80 80 79 79 78 78 78 78 78 80 82 83 82 82 83 83 84 86 88 91 93 95 98 101 106 110 113 115 117 118 120 121 120 120 119 120 120 119 119 119 119 120 121 122 122 123 123 123 122 122 122 121 120 118 117 117 115 115 116 117 117 116 116 115 114 114 114 115 116 117
93 93 93 93 93 92 92 91 90 88 87 86 85 85 84 82 81 81 80 80 80 80 80 80 81 83 84 85 85 85 85 86 87 88 90 92 94 96 98 101 105 108 111 114 116 119 120 121 121 122 123 123 121 121 121 121 121 121 122 123 124 125 125 124 124 124 125 124 123 123 121 120 119 119 120 119 119 120 120 119 118 117 117 117 117
95 95 94 94 94 94 94 94 94 93 91 90 88 87 86 84 83 83 82 81 81 82 82 83 83 84 86 87 87 88 88 88 89 89 90 91 93 95 97 98 101 104 107 111 114 117 119 120 121 122 124 125 125 124 124 123 123 123 123 124 124 125 126 125 125 126 127 126 126 127 126 125 124 124 123 123 122 122 122 122 122 122 121 120 120
96 96 96 96 96 96 96 96 96 96 95 93 91 89 88 87 86 85 85 84 84 83 84 85 85 86 88 89 89 90 90 91 91 91 91 92 93 94 96 97 100 102 104 106 109 113 117 118 119 121 123 125 127 127 127 126 126 126 126 126 126 126 126 126 126 127 128 128 128 128 128 128 127 127 127 127 125 124 124 124 124 124 125 125 125
98 98 98 97 97 97 97 97 97 96 95 94 93 91 90 89 89 89 88 88 87 86 86 86 87 87 88 90 91 91 92 93 93 93 93 94 94 94 96 97 98 101 103 104 106 108 111 115 118 120 121 123 125 127 128 129 129 129 129 129 129 128 128 127 127 127 128 129 129 128 129 129 129 129 129 129 128 128 128 128 127 127 127 127 127
100 100 100 99 98 97 97 96 95 95 94 94 94 93 93 92 92 91 91 91 90 89 88 88 88 88 89 90 92 93 93 94 95 96 96 96 97 97 97 97 98 100 102 103 105 106 107 110 113 116 118 121 123 125 127 129 130 131 131 132 132 131 131 130 129 129 129 130 130 129 128 129 128 128 129 130 130 131 131 131 131 130 130 130 130
100 100 100 99 98 97 96 95 95 94 94 94 94 94 95 95 94 94 93 93 92 91 90 90 89 89 90 91 92 93 94 95 96 98 99 99 99 99 99 99 99 100 101 103 104 106 107 107 108 110 113 116 119 122 125 127 128 130 131 132 133 133 133 133 132 132 131 132 132 131 130 129 129 129 129 130 131 132 132 133 132 132 132 133 133
99 99 99 98 98 97 96 96 95 95 95 95 95 96 96 96 96 96 95 94 94 93 92 91 91 90 91 92 92 94 95 96 97 98 100 101 102 102 102 102 101 101 101 102 104 105 106 107 107 108 109 111 114 117 121 124 126 128 129 131 132 134 134 134 134 133 133 134 135 135 133 132 131 131 131 131 131 132 132 133 133 133 133 133 134
99 98 98 98 98 98 97 97 96 96 96 96 97 97 97 97 97 97 96 96 95 95 94 94 93 92 92 92 93 94 95 96 97 98 100 102 103 104 105 105 104 104 104 104 105 105 106 107 107 108 108 109 110 112 115 119 122 124 126 127 129 131 132 133 133 134 134 134 135 136 136 135 134 134 134 134 133 133 133 133 133 134 134 134 134
98 98 98 98 98 98 98 98 98 97 97 97 97 97 97 98 98 98 98 98 97 97 96 96 95 94 94 94 94 94 95 96 97 99 100 101 103 105 107 107 108 107 107 106 106 107 107 107 108 108 108 109 110 110 112 114 117 119 121 123 124 126 128 130 131 131 132 133 134 135 136 136 136 136 136 136 136 136 136 136 135 135 136 136 136
98 98 98 98 98 99 99 99 99 98 98 98 98 98 98 99 99 99 99 99 99 99 98 98 98 97 96 95 95 95 95 96 97 98 99 101 103 104 106 108 109 110 110 109 109 109 109 109 109 109 109 109 110 111 111 112 114 115 116 118 119 121 124 126 127 128 129 130 131 132 133 134 135 136 136 136 136 137 138 138 138 137 137 137 137
97 98 98 98 98 98 99 100 100 100 99 99 99 99 99 100 100 100 101 100 100 100 100 99 99 99 98 97 96 96 96 96 97 97 98 100 102 103 105 107 109 110 111 112 112 111 110 110 111 111 110 111 111 111 112 113 114 115 115 115 115 116 118 120 122 124 125 127 128 128 129 130 131 132 133 133 134 135 136 138 138 137 136 137 138
97 97 97 97 98 98 98 99 100 101 101 100 101 101 101 101 101 101 102 102 102 101 101 100 100 100 100 100 99 98 97 97 98 98 98 99 100 102 104 106 107 109 111 112 113 113 113 112 112 112 112 113 113 113 113 113 114 115 116 115 114 114 115 116 117 119 120 122 124 125 125 125 126 128 129 130 130 130 131 132 133 133 132 133 134
95 96 97 97 97 98 97 97 98 100 101 101 101 102 102 102 102 102 102 102 102 102 102 101 101 101 101 101 101 100 99 99 99 99 99 99 100 101 102 104 106 107 109 111 113 114 115 114 114 114 115 115 115 115 115 114 115 116 116 116 115 115 115 115 115 116 117 118 120 121 122 122 122 124 125 126 126 126 126 126 127 127 127 127 127
92 93 95 95 96 97 98 98 97 97 99 100 101 101 102 102 103 103 103 102 102 102 102 102 102 102 102 102 102 102 102 102 101 101 101 101 101 101 102 103 105 106 108 109 111 113 115 116 116 117 117 117 117 117 117 117 117 117 117 117 116 116 116 116 116 116 116 116 116 117 119 119 120 121 121 122 123 123 123 123 123 123 122 122 122
90 91 92 93 94 96 97 99 98 96 97 99 100 100 101 101 102 103 103 103 103 102 102 102 102 103 103 103 103 104 104 104 104 103 103 103 103 102 102 102 103 105 107 108 110 111 112 114 116 117 119 119 120 120 120 119 119 119 119 119 118 118 117 117 116 117 117 117 115 115 116 117 118 118 119 119 120 120 121 121 121 121 120 120 120
88 89 91 92 93 95 96 97 98 96 95 96 99 99 99 100 101 102 103 103 103 103 103 102 102 103 103 104 105 105 105 105 106 106 105 105 105 104 103 103 103 104 105 107 108 110 111 112 114 116 118 119 121 122 123 123 122 121 120 120 120 120 120 118 118 118 118 118 117 115 115 115 117 117 117 117 117 118 118 118 119 119 119 119 120
84 85 87 89 91 93 94 95 96 96 95 94 97 98 99 100 101 102 102 103 103 104 103 103 103 103 103 104 106 106 106 106 106 107 107 107 107 106 106 105 104 104 105 106 107 108 109 111 112 113 115 117 120 122 124 125 125 124 123 122 122 123 122 121 120 120 120 119 118 117 116 116 117 118 118 117 117 116 116 116 116 117 117 118 118
83 83 83 84 87 89 91 92 93 95 94 94 95 97 99 100 101 102 103 103 103 103 104 104 104 104 104 104 105 106 107 107 106 107 108 108 109 109 108 107 106 106 106 106 107 107 108 109 110 111 113 115 117 120 123 125 126 126 125 125 125 125 125 124 123 122 122 122 121 120 119 118 118 118 118 119 118 117 117 116 116 116 116 116 117
83 82 82 81 83 84 87 89 90 91 92 93 94 96 97 98 100 102 103 104 103 103 103 104 104 104 104 104 104 105 106 107 107 107 107 108 109 110 110 109 109 108 108 108 107 107 108 108 109 110 111 113 115 117 119 122 124 126 126 127 127 127 127 127 126 125 124 124 124 123 121 120 120 120 120 120 119 119 118 117 117 117 117 117 117
81 81 80 80 79 80 82 84 86 87 88 89 91 93 95 96 97 99 101 103 103 103 103 103 104 104 104 104 104 105 105 106 106 107 107 108 108 109 111 111 110 110 110 110 109 108 108 108 108 109 109 111 112 114 116 118 121 124 126 127 128 128 128 128 128 128 127 127 127 126 124 123 123 123 122 121 121 120 119 119 119 119 119 120 120
79 78 78 77 77 77 78 80 82 84 85 85 86 89 91 93 94 96 98 99 100 101 102 102 102 103 104 104 105 105 106 106 106 107 107 108 108 108 110 111 111 111 111 111 111 110 110 109 108 108 109 110 111 112 113 115 118 120 123 125 127 128 128 129 129 129 129 129 129 128 127 126 126 125 124 123 122 122 121 121 121 121 122 122 122
76 76 76 75 74 74 75 77 79 81 82 82 83 84 87 88 90 92 94 95 96 97 99 100 100 101 102 104 105 106 106 106 107 107 107 108 108 108 108 110 110 111 111 112 112 112 111 110 109 109 109 109 110 111 112 113 115 117 119 122 124 126 127 128 128 129 129 130 130 130 129 129 129 128 126 126 125 125 124 124 123 123 124 125 125
75 75 74 73 71 70 71 74 76 78 79 79 80 81 82 84 85 87 89 91 91 92 94 95 97 98 100 102 104 105 106 107 107 107 107 108 109 108 108 109 110 111 111 111 112 112 112 112 111 111 110 110 110 110 111 112 113 115 116 118 120 123 125 126 127 128 129 129 129 129 129 129 129 129 128 128 128 128 127 127 126 126 126 127 127
74 74 73 72 71 70 69 71 73 74 75 76 77 78 78 79 80 81 83 85 86 88 90 90 92 94 96 99 101 103 105 106 106 106 107 108 109 109 108 109 110 111 111 111 112 112 113 113 113 112 112 111 111 111 111 112 113 113 114 116 117 119 121 122 124 126 127 128 128 128 128 129 129 129 129 128 128 129 129 128 128 128 129 129 129
71 71 70 69 69 69 69 69 70 72 72 73 73 74 74 74 75 76 77 79 81 83 85 86 88 90 92 94 97 99 102 104 105 105 105 107 108 109 109 108 109 110 111 112 112 112 112 113 114 114 113 113 113 113 113 113 113 113 114 114 115 116 117 119 120 122 124 125 126 127 127 128 128 128 128 127 128 128 128 128 128 129 130 130 131
68 67 66 65 64 65 65 65 66 68 70 70 70 70 69 69 70 72 73 75 77 79 80 82 85 87 89 90 91 93 96 100 102 104 104 104 106 108 109 108 108 109 110 112 112 112 112 113 114 114 114 114 114 114 114 114 114 114 114 114 115 115 116 116 117 119 120 122 123 124 125 126 127 127 127 127 127 127 128 128 128 128 129 130 130
69 68 67 65 63 62 62 62 62 63 64 65 66 66 66 65 66 67 69 71 73 75 77 80 82 84 85 85 86 88 91 94 97 100 102 103 104 106 108 109 109 108 109 110 111 112 112 112 113 114 115 115 115 115 115 115 115 115 114 114 114 115 115 115 116 117 118 119 120 121 123 123 124 125 126 126 127 127 127 127 127 128 129 129 129
70 70 70 69 67 66 64 63 63 62 61 61 60 60 60 61 62 64 66 68 69 71 74 77 79 80 80 81 82 84 87 90 93 95 98 101 102 104 106 108 109 108 108 108 109 111 112 112 112 113 114 115 115 116 116 115 115 115 115 115 114 114 114 115 115 116 117 117 118 119 120 121 121 122 124 124 125 126 126 126 127 127 128 128 129
68 68 68 69 69 68 68 67 66 65 63 62 60 57 56 57 58 61 63 66 68 69 71 73 75 76 77 78 80 82 84 87 89 90 93 97 100 101 103 105 107 107 108 108 109 110 110 111 112 112 113 114 115 116 116 116 116 116 116 116 115 114 114 113 114 115 116 117 118 118 119 119 120 120 121 122 123 123 124 125 126 127 127 127 128
63 63 64 64 64 65 66 66 66 65 64 62 61 59 57 55 55 57 59 62 66 68 69 71 71 73 74 75 77 80 82 84 85 86 88 92 95 98 101 103 104 105 106 107 108 109 110 110 111 111 111 113 114 115 116 116 116 116 116 116 115 114 114 113 113 114 114 115 116 117 118 118 119 119 119 120 121 121 122 124 124 125 126 126 126
60 60 60 60 61 61 62 63 64 64 62 61 60 59 57 55 55 54 55 58 62 66 68 69 69 70 70 71 72 75 78 80 81 82 84 87 89 93 96 98 100 101 103 104 106 108 109 110 110 110 110 111 113 114 115 116 116 116 116 116 115 115 115 115 114 114 114 114 114 115 116 117 117 118 118 119 120 120 121 121 122 123 124 124 125
58 58 58 59 59 60 60 61 61 62 61 60 59 58 56 55 54 54 54 55 58 62 65 67 67 67 67 66 67 70 72 75 76 78 80 82 84 87 89 91 94 96 98 100 103 104 106 108 109 109 110 110 111 112 114 114 115 116 115 115 115 115 115 115 115 115 115 115 114 115 115 115 116 116 117 118 119 120 119 119 119 120 121 122 123
58 58 58 58 59 59 60 60 60 60 60 58 58 57 55 54 53 53 53 54 56 59 62 64 65 64 64 63 64 65 67 70 72 74 76 78 79 81 82 84 86 89 93 95 97 100 102 104 106 107 108 108 109 110 111 112 113 114 114 114 114 114 114 115 115 116 116 116 116 116 116 115 115 115 116 117 119 119 119 118 117 118 118 119 120
59 58 57 57 57 57 58 59 59 59 58 57 56 55 54 53 52 51 51 53 54 56 58 60 61 61 61 61 61 62 64 65 67 68 70 72 74 76 77 79 80 83 86 90 92 95 97 99 101 103 105 106 107 108 108 109 110 111 112 113 113 113 113 113 114 115 115 116 117 117 117 117 115 115 115 116 118 118 118 118 117 117 117 117 117
57 57 57 56 55 55 55 57 57 58 57 56 55 53 52 51 51 50 50 51 52 53 54 56 57 57 57 58 58 60 61 62 63 64 65 67 70 72 73 75 76 78 81 84 86 89 92 94 97 99 101 103 104 105 106 107 107 108 109 110 110 111 111 112 112 113 113 114 115 116 117 117 117 116 115 116 117 117 117 118 118 117 117 116 117
54 54 54 54 54 53 52 53 54 55 55 55 54 52 50 49 49 48 48 49 50 51 52 53 54 54 54 55 56 57 59 60 61 61 62 64 66 68 69 71 73 75 77 79 81 84 86 89 92 94 97 99 101 102 104 104 105 105 106 106 106 107 107 109 110 111 111 112 113 114 115 116 116 116 116 116 117 116 116 116 117 117 117 117 118
54 53 53 52 52 51 50 50 51 52 53 53 53 52 50 49 48 47 47 47 48 49 50 50 51 52 53 53 53 54 56 57 58 59 60 61 62 64 66 68 69 71 73 75 77 79 82 85 87 89 92 94 96 98 100 101 101 102 103 103 103 103 104 105 107 108 109 110 111 112 112 112 113 113 114 116 116 116 116 115 116 117 117 117 118
53 53 53 52 51 50 49 48 48 50 50 50 50 50 49 48 48 46 45 45 46 47 48 48 49 49 50 51 51 52 53 55 56 57 58 59 60 61 63 65 67 68 70 72 74 76 78 80 83 85 87 89 91 93 94 96 97 98 98 99 99 99 100 102 103 104 105 106 108 109 110 110 110 110 111 113 114 115 115 115 116 116 116 116 116
50 51 51 51 50 48 48 47 47 47 48 49 48 48 47 47 47 46 45 45 45 45 46 47 47 47 48 49 49 50 51 52 53 54 56 57 57 59 60 62 64 66 67 69 71 73 75 76 78 80 82 84 86 87 89 90 92 93 94 94 95 95 96 98 99 100 101 102 104 105 106 107 107 108 108 109 111 111 112 113 115 115 114 114 115
49 49 49 50 49 48 46 45 45 45 46 47 47 47 46 45 45 45 45 44 44 44 45 45 46 46 47 47 48 48 49 50 51 53 54 54 55 57 58 60 61 63 65 66 68 70 71 73 74 76 77 79 81 82 83 85 86 88 89 90 90 90 92 93 95 96 97 99 100 101 102 103 104 104 105 106 106 107 107 109 111 112 111 112 114
49 48 47 48 48 47 46 45 44 43 43 44 45 45 44 44 43 43 44 44 44 44 44 44 44 45 45 46 47 47 48 49 50 51 52 53 54 55 56 58 59 61 62 64 65 66 68 70 71 73 74 75 76 78 79 80 82 83 84 85 86 86 87 89 91 92 94 95 96 97 98 99 100 101 102 102 103 103 103 104 106 107 108 110 112
50 49 48 47 47 47 47 46 44 43 42 42 42 42 43 43 42 42 42 42 43 43 43 43 43 44 44 45 46 46 47 48 49 50 51 52 53 54 55 56 57 59 60 61 62 64 65 67 69 70 72 73 74 75 76 77 78 79 80 82 82 83 84 85 87 89 90 91 92 93 94 95 96 97 98 99 100 100 100 100 101 103 105 107 109
51 50 48 47 47 47 46 46 45 44 43 42 41 41 41 41 41 41 41 41 41 42 42 42 43 43 43 44 44 45 46 47 48 48 49 50 51 53 53 54 55 57 58 59 60 61 62 64 66 67 69 70 71 72 73 74 75 76 77 79 80 80 81 82 84 86 86 86 87 89 91 92 93 94 95 96 97 98 98 98 99 100 102 104 106
50 50 49 48 47 47 46 46 45 44 43 43 42 41 41 40 40 40 40 40 40 40 41 41 42 42 42 43 43 44 45 45 46 47 48 49 50 51 52 52 53 55 56 57 58 59 60 62 63 64 66 67 68 69 70 71 72 73 74 76 77 78 79 80 82 83 83 83 84 86 87 89 90 91 91 93 94 95 95 95 96 98 100 102 103
50 49 48 47 47 46 46 46 45 44 43 43 43 42 41 41 40 40 39 39 39 39 40 40 41 41 41 41 42 43 43 44 45 46 47 48 48 49 50 50 51 53 54 55 56 57 58 59 61 62 63 64 65 66 67 68 69 70 72 73 74 75 76 77 79 81 82 82 82 84 85 86 87 88 89 90 91 92 93 93 93 95 97 99 100
50 49 48 48 47 46 46 46 46 45 44 43 43 43 42 41 41 40 40 39 39 38 39 39 39 39 40 40 41 41 42 43 44 45 46 46 47 48 48 49 49 51 52 53 54 55 56 57 58 59 60 62 63 64 64 65 67 68 69 70 71 72 73 75 76 78 79 80 80 81 82 84 84 85 86 88 89 90 91 91 91 92 94 96 98
Wind_Direction
281 281 280 280 280 280 279 278 277 277 276 275 274 272 270 268 266 265 263 262 261 260 260 258 255 253 252 251 249 248 248 248 247 246 245 244 242 241 240 240 240 239 239 238 238 238 238 238 238 240 241 241 241 240 239 238 238 238 239 239 240 241 242 243 243 244 245 245 245 245 246 246 246 247 247 247 247 247 247 248 248 248 248 248 248
283 281 280 279 279 279 279 279 278 276 276 275 274 273 271 270 268 266 264 263 261 260 260 259 257 255 253 252 250 249 248 248 248 247 247 245 243 242 241 241 241 240 240 240 239 239 239 238 238 239 240 240 241 241 241 240 239 239 239 239 240 241 241 242 243 244 245 245 245 246 246 247 247 247 247 248 248 248 248 248 248 249 249 249 249
284 283 282 281 280 279 279 278 278 277 276 274 274 273 272 270 269 267 265 264 262 261 260 260 259 256 254 253 252 250 249 248 247 247 247 247 245 243 242 242 242 241 240 240 240 240 239 239 239 239 239 240 240 240 241 241 241 241 240 240 240 241 242 242 243 243 244 244 245 246 246 247 247 248 248 248 248 249 249 249 249 249 249 249 249
284 284 284 284 283 282 280 279 278 278 277 275 274 273 272 271 269 268 266 264 263 261 260 259 259 258 255 254 253 251 250 249 248 248 247 247 247 245 243 243 242 241 241 240 240 240 240 240 240 240 240 240 240 241 241 241 242 242 242 242 242 242 242 243 243 244 244 244 244 245 246 246 247 247 248 248 248 249 249 249 249 249 249 249 250
284 284 284 284 284 284 283 282 280 279 278 277 275 274 272 271 269 268 266 265 263 262 260 258 258 258 257 255 254 252 251 250 249 248 248 247 247 247 246 245 244 243 242 241 241 241 241 241 241 241 241 241 241 241 242 242 242 242 243 243 243 244 244 244 244 244 245 245 245 245 246 246 246 246 247 247 247 248 249 249 249 250 250 250 250
283 283 283 284 284 284 284 283 282 281 279 277 276 275 273 271 269 268 266 265 263 262 261 259 258 257 257 256 255 254 252 251 249 248 248 248 248 247 247 247 246 245 244 243 242 242 241 241 241 242 243 242 242 242 242 242 242 243 243 243 244 244 245 245 245 245 245 245 245 246 246 246 246 246 247 247 247 248 248 249 249 249 250 250 250
283 283 283 283 283 283 283 283 282 281 280 278 277 275 274 272 271 269 267 266 264 263 261 260 258 257 257 256 255 254 253 252 251 250 249 248 248 247 247 247 247 247 245 245 244 243 242 241 241 241 242 243 243 242 243 243 243 243 243 243 243 244 244 245 246 246 246 246 246 246 246 246 247 247 248 248 248 248 249 249 249 249 250 250 250
282 282 282 282 282 282 281 281 281 280 279 278 277 276 274 273 272 271 269 268 266 264 262 261 259 257 257 256 255 254 253 252 252 251 251 249 248 247 247 247 248 248 247 246 245 244 243 242 241 241 242 243 243 243 243 243 244 243 243 243 243 244 244 244 245 246 247 247 246 247 247 247 247 248 249 249 249 249 250 250 250 250 250 250 251
282 281 281 280 280 279 279 278 278 278 278 277 277 276 275 274 273 272 271 270 268 266 264 262 260 258 257 256 255 253 252 251 251 251 251 251 250 248 247 246 247 248 248 247 247 246 246 244 242 241 241 242 243 243 243 243 244 244 244 244 244 244 244 244 245 246 246 247 247 247 247 248 248 248 249 250 250 250 250 250 250 250 251 251 251
281 280 279 279 278 277 277 276 276 275 275 275 275 275 274 274 273 272 271 270 269 267 265 264 262 259 257 256 255 253 252 251 250 250 249 249 250 249 248 247 246 247 247 248 248 247 247 246 245 243 242 242 243 244 244 244 244 244 245 245 245 244 245 245 245 245 246 247 247 247 247 248 248 249 249 250 250 251 251 251 251 251 252 252 252
279 279 278 277 277 276 275 274 274 273 273 272 272 272 272 272 272 272 271 270 269 268 266 265 263 261 259 257 255 254 252 251 250 249 248 248 248 249 249 248 248 247 247 247 248 248 247 247 247 246 244 243 243 244 244 244 244 245 245 245 245 245 245 245 245 246 246 247 247 247 247 248 248 248 249 250 250 251 251 252 252 252 253 253 253
278 277 276 276 275 274 274 273 272 272 271 271 271 270 270 270 270 270 270 269 269 268 266 265 263 261 260 258 256 254 253 251 250 248 248 248 247 247 248 248 248 248 247 247 247 248 247 247 247 247 246 245 244 244 244 244 245 245 245 245 246 246 246 246 246 246 247 247 248 248 248 248 248 248 249 249 250 251 251 252 252 253 253 254 254
278 277 276 275 275 274 273 272 271 270 270 269 269 269 269 269 269 269 268 268 267 267 266 265 263 262 260 258 257 255 254 252 251 249 248 247 247 247 247 247 247 247 247 248 248 248 248 247 247 247 247 247 246 245 245 245 245 245 245 246 246 246 247 247 247 247 247 248 248 249 249 248 249 249 249 250 250 250 251 252 252 253 253 253 254
277 276 276 275 274 273 272 272 271 270 269 268 268 268 268 267 267 267 267 267 266 266 265 264 263 262 260 259 257 256 254 253 252 251 249 248 247 246 246 246 246 246 246 247 247 248 248 248 247 247 247 247 247 247 246 246 246 245 245 245 246 246 247 247 247 247 247 247 248 249 249 249 249 249 250 250 250 251 251 251 252 253 253 253 254
276 275 274 274 273 272 272 271 270 270 269 268 267 267 266 266 266 266 265 265 265 264 264 263 263 262 261 259 258 256 255 254 253 251 251 250 248 247 246 246 246 246 246 246 246 247 247 248 248 248 247 247 247 247 247 247 247 247 246 246 246 246 247 247 247 247 248 248 248 249 249 250 250 250 250 250 251 251 251 251 252 252 253 254 254
275 274 273 272 272 271 271 270 270 269 268 268 267 266 265 265 265 264 264 264 263 263 263 262 262 262 261 260 259 257 256 255 254 252 251 251 250 249 248 247 246 246 246 246 246 246 246 247 248 248 248 248 248 247 247 247 248 248 247 246 246 246 247 247 247 248 248 248 248 249 249 250 250 250 250 250 251 251 252 252 252 252 253 254 255
276 275 274 272 271 270 269 268 268 268 267 266 266 265 264 264 263 263 263 262 262 262 261 261 261 261 260 260 259 258 257 256 255 253 252 251 251 250 250 249 248 247 246 246 246 246 246 246 247 248 248 248 249 248 248 248 248 248 248 247 247 247 247 247 248 248 248 249 249 249 249 250 250 251 251 251 251 251 252 253 253 253 253 254 255
276 275 274 273 272 270 268 267 266 266 266 265 264 264 263 263 262 261 261 261 260 260 260 260 260 259 259 259 259 258 257 256 255 254 253 252 251 250 250 250 250 249 247 246 246 246 246 246 246 247 247 248 248 249 249 249 249 249 249 249 248 247 247 247 248 248 248 249 249 249 249 249 250 250 251 251 251 251 252 253 253 253 253 254 254
275 274 273 272 271 270 269 267 265 264 264 264 263 262 262 262 261 261 260 260 259 259 259 258 258 258 258 257 257 257 257 256 255 254 253 252 252 251 250 249 249 249 249 248 247 246 246 246 245 246 246 247 248 248 248 249 249 249 250 250 249 248 248 248 248 248 248 248 249 250 250 250 250 250 251 251 251 252 252 252 252 253 253 253 254
275 273 272 271 270 269 268 268 266 264 263 263 263 262 261 261 261 260 260 259 259 258 257 257 256 256 256 255 255 255 255 255 255 254 254 253 252 251 250 250 249 249 249 249 248 248 247 246 245 245 246 246 247 248 248 248 248 249 250 250 250 250 249 249 249 249 249 249 249 249 251 251 251 251 251 251 251 252 252 252 252 252 253 253 253
274 273 272 271 270 269 268 268 267 266 265 264 264 263 262 261 261 260 259 259 258 258 257 256 255 254 254 254 254 253 253 253 254 254 254 253 253 252 251 250 249 249 249 249 249 248 248 247 246 246 245 245 246 247 248 248 248 248 249 249 250 250 251 250 250 250 250 250 249 249 250 251 252 252 251 251 251 252 252 252 252 253 253 253 253
276 274 273 272 271 270 269 269 268 267 266 264 263 263 262 261 261 260 259 258 258 257 257 256 255 254 253 252 253 252 252 251 252 252 253 253 253 253 252 251 250 249 249 249 249 249 249 248 248 247 246 246 246 246 247 248 248 248 248 249 249 250 250 250 250 250 250 250 250 249 249 250 251 252 252 252 252 252 252 252 253 253 253 253 253
280 278 275 273 272 271 270 269 268 268 266 265 263 262 261 261 260 260 259 258 257 257 256 256 255 254 253 252 252 252 251 251 250 250 251 252 252 252 252 252 251 250 249 249 249 249 249 249 248 248 248 247 246 246 247 247 248 249 249 249 249 249 250 250 250 250 251 251 250 250 249 249 250 251 252 252 253 252 252 253 253 253 253 253 254
282 280 278 276 274 273 272 271 270 269 268 267 266 264 263 262 261 260 260 259 258 257 256 255 255 255 254 253 252 252 251 251 250 250 249 250 250 251 251 251 251 251 251 250 249 249 249 249 249 249 248 248 248 247 247 247 248 248 249 249 249 249 250 250 250 250 250 251 251 251 250 250 250 250 251 251 252 253 253 253 253 254 254 254 254
282 282 281 279 278 277 275 274 273 271 270 268 267 266 265 264 263 262 261 261 260 259 258 256 256 255 254 253 253 252 251 251 251 250 249 249 249 249 250 250 250 250 251 251 251 250 249 249 249 249 249 248 248 248 248 248 248 248 249 249 249 249 249 250 250 251 251 251 251 251 251 251 250 250 250 251 251 252 253 253 254 254 254 254 254
285 284 283 281 280 278 276 275 273 272 270 268 267 266 265 264 264 263 262 261 260 260 260 259 257 257 256 255 254 253 252 251 250 250 250 249 249 248 248 249 249 249 249 250 250 251 250 249 249 249 249 249 249 248 248 248 248 248 249 249 250 250 250 250 250 250 251 251 252 252 252 252 251 251 251 251 251 251 252 253 253 254 254 254 254
287 285 283 281 279 278 276 275 273 272 270 269 267 266 265 265 264 263 263 262 261 260 260 259 258 257 257 256 255 255 253 252 251 250 249 249 249 248 248 248 248 248 248 249 249 250 250 251 250 249 249 249 249 250 249 248 248 248 248 249 249 250 250 251 251 251 251 251 252 252 252 252 253 253 252 252 252 252 251 252 252 253 254 254 255
288 285 283 282 280 278 277 275 274 273 272 271 269 268 266 265 264 264 263 263 263 262 261 260 259 258 257 256 255 255 255 254 253 252 251 250 249 248 248 248 248 248 247 247 248 248 249 249 250 250 250 249 249 250 250 249 249 249 248 248 249 249 250 250 251 251 252 252 252 252 252 252 253 253 253 253 253 253 252 252 252 252 253 254 255
289 288 287 286 284 282 279 277 275 274 273 273 272 270 269 267 266 265 264 264 263 263 262 260 259 258 257 255 254 254 254 254 254 253 252 252 251 250 249 248 248 248 247 246 246 247 247 248 248 249 250 250 250 250 250 250 250 249 249 249 249 249 249 250 251 251 252 252 253 253 253 253 253 253 253 253 253 253 253 253 253 253 253 253 254
289 288 288 287 286 284 283 281 279 278 277 275 273 272 271 270 269 267 266 265 263 262 261 260 259 258 256 255 254 253 253 254 254 253 253 252 253 252 251 250 249 248 248 248 247 246 246 247 247 248 248 249 249 249 250 250 250 250 250 250 249 249 249 249 250 251 251 252 253 253 254 254 254 254 254 254 254 254 254 254 254 254 254 254 254
293 291 290 288 286 285 283 282 281 280 279 278 277 275 274 272 270 268 267 265 264 263 262 260 259 257 256 255 254 253 253 253 253 253 253 252 252 252 253 252 251 250 249 249 249 248 247 246 246 247 247 247 248 248 249 249 250 250 250 250 250 250 250 250 250 250 251 251 252 253 253 254 254 255 255 255 255 255 255 255 255 255 255 255 255
298 297 296 294 292 290 288 285 283 280 279 278 278 277 276 274 272 269 267 265 263 262 262 261 259 258 257 256 255 253 252 252 252 252 252 252 251 251 252 252 252 251 250 250 250 250 249 248 247 247 247 247 247 247 248 248 249 249 250 250 250 250 250 251 251 251 251 251 251 252 253 253 254 254 255 255 256 256 256 256 256 256 257 256 256
300 300 299 299 298 296 294 292 290 287 284 281 279 277 276 275 273 271 268 265 263 261 260 260 260 260 259 258 256 254 252 251 250 250 250 250 251 250 250 251 251 251 251 251 250 250 250 251 250 249 249 248 248 248 248 248 249 249 250 250 250 250 250 250 251 251 251 252 252 252 252 253 253 253 254 254 255 256 256 256 257 257 257 257 257
298 298 297 297 297 296 295 294 293 291 290 287 285 281 277 274 272 270 268 267 265 262 259 258 258 258 258 257 256 255 253 252 251 249 249 249 249 249 249 249 250 250 250 250 250 250 250 250 251 251 250 250 250 250 250 249 249 249 250 250 250 250 250 250 250 251 251 252 252 252 253 253 253 254 254 254 255 255 255 256 256 256 257 257 257
296 295 295 294 293 293 293 293 292 291 290 289 288 285 282 278 273 270 268 267 266 265 263 260 259 257 256 256 255 256 255 255 254 252 250 249 249 248 248 248 249 249 249 249 249 249 249 249 250 250 250 251 251 251 251 251 251 250 250 251 251 251 251 251 251 251 251 251 252 252 253 253 253 254 254 254 255 255 255 255 255 256 256 256 257
297 296 295 295 294 293 293 292 291 291 290 289 288 286 284 281 277 273 270 267 266 266 265 264 263 261 259 257 256 255 256 256 256 255 253 252 250 250 249 249 249 249 249 249 249 249 249 249 249 249 249 250 250 251 252 252 252 251 251 251 251 252 252 252 252 252 252 252 252 252 253 253 253 254 254 254 255 255 255 255 255 256 256 256 257
301 300 299 298 297 296 295 294 293 292 291 290 289 287 285 283 280 276 273 269 267 266 266 266 265 264 263 261 259 257 256 255 255 255 255 254 253 252 251 251 251 251 251 250 250 250 250 250 250 250 249 249 249 250 251 251 252 252 252 252 252 251 252 252 252 252 253 253 253 253 253 253 253 254 254 254 255 255 255 255 255 255 256 256 257
304 303 302 301 300 299 297 296 294 293 292 291 290 288 287 284 282 279 275 272 269 267 266 266 267 267 266 264 262 260 258 256 255 255 255 255 255 255 254 253 252 252 252 252 251 251 251 251 251 251 251 250 250 250 251 251 251 252 252 252 252 252 251 251 252 252 252 253 253 253 253 253 253 253 254 254 255 255 255 255 255 255 255 256 256
305 304 302 301 300 299 298 296 295 294 293 292 290 289 288 286 283 281 278 275 272 270 268 267 267 267 267 266 264 262 260 258 257 255 255 255 255 255 255 254 253 252 252 252 252 252 251 251 252 252 252 252 252 252 252 252 252 252 253 253 252 252 252 252 252 251 252 252 252 253 254 254 254 254 254 254 254 255 255 256 256 255 255 255 256
305 304 303 302 301 299 298 297 296 295 294 292 291 289 288 286 284 282 279 277 275 273 271 270 269 268 267 266 265 264 262 261 259 257 255 254 254 254 254 254 254 253 252 252 252 252 252 252 252 252 252 252 252 252 252 252 252 252 252 253 253 253 253 253 252 252 252 252 252 252 253 253 254 254 254 254 254 254 255 255 256 256 256 256 256
305 304 303 302 301 299 298 297 296 295 294 293 292 291 289 287 285 282 280 278 277 275 274 272 271 270 268 266 264 263 263 262 261 259 257 255 254 254 253 253 253 253 252 252 252 251 251 251 251 251 252 252 252 252 253 253 252 252 252 252 252 252 252 253 253 252 252 252 252 252 252 252 252 253 253 254 254 254 254 254 255 255 255 255 256
308 307 305 303 302 300 299 297 296 295 295 294 293 292 291 289 286 284 282 279 277 276 275 273 272 270 269 267 265 264 262 262 261 261 259 258 256 255 254 253 253 252 252 252 251 251 251 251 251 251 251 252 252 253 253 253 254 253 253 253 253 253 253 253 253 252 252 252 252 252 252 252 252 252 252 252 253 253 254 254 254 254 254 254 255
310 309 307 306 304 303 301 300 298 297 296 295 294 293 292 290 288 286 283 281 279 277 275 274 272 271 270 268 267 265 264 262 262 261 261 260 258 257 256 254 253 253 252 252 251 251 251 251 251 251 252 252 253 253 253 254 254 254 254 254 254 253 253 253 253 253 253 253 253 253 253 253 252 252 252 252 252 252 253 253 253 254 254 254 254
312 310 309 307 306 305 303 302 300 299 297 296 294 293 292 291 289 288 285 283 281 279 277 275 273 272 270 268 267 266 265 264 263 262 261 261 260 259 258 256 255 254 253 253 252 252 252 252 252 252 252 252 253 253 253 254 254 255 255 255 255 254 254 254 253 253 253 253 253 253 253 253 253 252 252 252 252 252 252 252 253 254 254 254 254
314 313 311 309 308 307 305 303 301 299 298 297 295 294 292 291 290 289 287 285 283 281 279 277 275 274 271 269 268 267 266 265 264 263 262 261 260 259 258 257 256 256 255 254 253 253 253 253 252 252 252 252 253 253 253 254 254 255 255 255 255 255 254 254 254 254 253 253 253 253 253 253 253 253 253 252 252 252 252 252 253 253 254 254 255
317 315 313 312 310 309 308 306 304 302 299 298 296 295 294 292 291 290 288 287 285 283 281 279 278 276 274 271 269 268 266 265 264 263 263 262 261 260 258 258 257 256 256 255 254 254 253 253 253 253 253 253 253 253 253 254 254 254 255 255 255 255 255 254 254 254 253 253 253 253 253 253 253 253 253 253 253 253 253 252 253 253 254 254 255
319 318 316 314 313 312 311 309 307 305 303 300 298 297 295 294 293 291 289 288 286 284 283 281 279 277 275 273 271 269 267 265 264 263 263 262 261 260 259 258 258 257 256 256 255 254 254 253 253 253 253 253 253 253 253 253 254 254 254 255 255 255 254 254 254 254 253 253 253 253 253 254 254 254 254 254 254 254 254 253 253 253 254 254 254
320 319 318 316 315 313 312 311 309 308 306 304 301 299 297 295 294 292 291 289 287 285 284 282 280 279 277 275 273 271 269 267 265 263 262 261 261 260 260 259 259 258 257 257 256 256 255 254 254 254 254 254 254 254 254 254 254 254 254 254 254 254 254 254 254 254 254 253 253 253 254 254 254 254 254 254 254 254 254 254 254 254 254 254 255
321 320 319 317 316 314 313 311 310 308 307 305 304 302 300 297 296 294 292 290 288 286 285 283 281 280 278 277 275 274 272 269 267 265 264 262 261 260 260 259 259 258 258 258 257 257 256 256 256 255 255 255 255 255 255 255 255 254 254 254 254 254 254 254 254 255 255 254 254 253 253 254 254 254 254 254 254 254 255 254 254 255 255 255 256
321 320 319 318 317 315 314 313 311 310 308 306 305 303 301 300 298 296 294 292 289 288 286 284 282 281 279 278 277 275 274 272 270 269 267 265 263 261 260 259 259 259 259 258 258 258 257 257 257 257 257 257 256 256 256 256 256 256 255 255 255 255 255 255 255 255 255 255 254 254 254 254 254 254 254 254 255 255 255 255 255 255 255 256 256
322 321 320 319 318 317 315 314 313 311 310 308 306 305 303 302 300 298 296 294 291 289 287 285 283 282 280 279 278 276 275 274 273 271 270 268 266 265 263 261 260 260 259 259 259 259 258 258 257 257 257 257 256 256 256 256 256 256 255 255 255 255 255 255 255 255 255 255 255 254 254 254 254 254 254 254 255 255 255 255 255 255 255 256 256